Weather History for KEED - April, 2014

Change the Weather History Date:

Sunday, April 20, 2014

  Actual Average Record
Temperature  
Mean Temperature 82 °F -  
Max Temperature 96 °F 83 °F 101 °F (1989)
Min Temperature 68 °F 55 °F 46 °F (1972)
Cooling Degree Days 16    
Growing Degree Days 32 (Base 50)    
Moisture  
Dew Point 36 °F    
Average Humidity 19    
Maximum Humidity 32    
Minimum Humidity 12    
Precipitation  
Precipitation 0.00 in - - ()
Sea Level Pressure  
Sea Level Pressure 29.86 in    
Wind  
Wind Speed 4 mph (SW)    
Max Wind Speed 13 mph    
Max Gust Speed 17 mph    
Visibility 10 miles    
Events      
Averages and records for this station are not official NWS values.
T = Trace of Precipitation, MM = Missing Value Source: NWS Daily Summary

Daily Weather History Graph

Daily Weather History Graph

Search for Another Location

Airport or City:

Trip Planner

Search our weather history database for the weather conditions in past years. The results will help you decide how hot, cold, wet, or windy it might be!

Date:

Astronomy

Apr. 20, 2014 Rise Set
Actual Time 6:00 AM PDT 7:14 PM PDT
Civil Twilight 5:34 AM PDT 7:41 PM PDT
Nautical Twilight 5:02 AM PDT 8:12 PM PDT
Astronomical Twilight 4:30 AM PDT 8:45 PM PDT
Moon No Moon Rise 10:29 AM PDT (4/20)
Length of Visible Light 14h 06m
Length of Day
13h 14m
Waning Gibbous, 67% of the Moon is Illuminated
Apr 20
Waning Gibbous
Apr 22
Last Quarter
Apr 28
New
May 6
First Quarter
May 14
Full

Hourly Weather History & Observations

Time (PDT) Temp. Dew Point Humidity Pressure Visibility Wind Dir Wind Speed Gust Speed Precip Events Conditions
12:56 AM 78.1 °F 39.0 °F 25% 29.85 in 10.0 mi Calm Calm - N/A   Clear
1:56 AM 77.0 °F 37.9 °F 24% 29.85 in 10.0 mi Calm Calm - N/A   Clear
2:56 AM 75.0 °F 37.9 °F 26% 29.86 in 10.0 mi WSW 6.9 mph - N/A   Clear
3:56 AM 71.1 °F 37.9 °F 30% 29.87 in 10.0 mi West 5.8 mph - N/A   Clear
4:56 AM 69.1 °F 37.0 °F 31% 29.87 in 10.0 mi WSW 4.6 mph - N/A   Clear
5:56 AM 68.0 °F 37.0 °F 32% 29.89 in 10.0 mi West 5.8 mph - N/A   Clear
6:56 AM 73.9 °F 37.9 °F 27% 29.91 in 10.0 mi SSE 3.5 mph - N/A   Clear
7:56 AM 75.9 °F 37.9 °F 25% 29.92 in 10.0 mi Calm Calm - N/A   Clear
8:56 AM 80.1 °F 39.0 °F 23% 29.93 in 10.0 mi Calm Calm - N/A   Clear
10:56 AM 87.1 °F 39.0 °F 18% 29.92 in 10.0 mi Variable 3.5 mph - N/A   Clear
11:56 AM 90.0 °F 37.9 °F 16% 29.90 in 10.0 mi North - - N/A   Clear
12:56 PM 93.0 °F 35.1 °F 13% 29.87 in 10.0 mi SW 12.7 mph 17.3 mph N/A   Clear
1:56 PM 95.0 °F 34.0 °F 12% 29.85 in 10.0 mi ESE 6.9 mph - N/A   Clear
2:56 PM 95.0 °F 34.0 °F 12% 29.83 in 10.0 mi Variable 5.8 mph - N/A   Clear
3:56 PM 93.9 °F 33.1 °F 12% 29.81 in 10.0 mi Calm Calm - N/A   Clear
4:56 PM 93.9 °F 34.0 °F 12% 29.81 in 10.0 mi South 10.4 mph - N/A   Clear
5:56 PM 93.9 °F 35.1 °F 13% 29.81 in 10.0 mi West 4.6 mph - N/A   Clear
6:56 PM 93.0 °F 34.0 °F 12% 29.80 in 10.0 mi WSW 8.1 mph - N/A   Clear
7:56 PM 90.0 °F 33.1 °F 13% 29.81 in 10.0 mi WSW 8.1 mph - N/A   Clear
8:56 PM 86.0 °F 33.1 °F 15% 29.83 in 10.0 mi SSW 5.8 mph - N/A   Clear
9:56 PM 84.9 °F 33.1 °F 16% 29.85 in 10.0 mi WSW 8.1 mph - N/A   Clear
10:56 PM 84.0 °F 35.1 °F 17% 29.85 in 10.0 mi WSW 12.7 mph - N/A   Clear
11:56 PM 82.9 °F 36.0 °F 19% 29.86 in 10.0 mi WSW 5.8 mph - N/A   Clear